EHI
0 0 0 0 0 0 0 0 0 0 0 0 1 2 3 3 2 4 7 18 36 47 50 56 61 61 58 52 40 29 24 23 24 28 31 35 39 38 32 20 12 11 9 5 3 2 1 0 0
0 0 0 0 0 0 0 0 0 0 0 0 1 4 7 7 6 7 15 31 49 57 57 60 64 64 62 54 41 30 23 19 19 20 22 25 27 26 21 13 8 7 6 4 2 1 0 0 0
0 0 0 0 0 0 0 0 0 0 0 0 1 4 10 11 10 15 30 51 63 66 65 68 71 71 68 60 46 32 21 17 15 12 11 12 12 11 8 5 3 2 2 1 0 0 0 0 1
0 0 0 0 0 0 0 0 0 0 0 1 2 5 9 12 17 30 51 67 71 70 69 74 77 75 72 65 51 36 24 18 15 11 9 8 6 4 3 2 1 0 0 0 0 0 0 0 1
0 0 0 0 0 0 0 0 0 0 1 2 5 10 14 19 34 54 68 75 76 75 74 76 78 76 73 68 58 46 34 26 20 15 12 9 7 4 2 1 0 0 0 0 0 0 0 0 1
0 0 0 0 0 0 0 0 0 0 1 3 9 18 24 35 54 69 74 75 77 79 78 77 75 72 70 68 64 58 49 39 29 21 15 11 8 5 2 1 0 0 0 0 0 0 0 0 0
0 0 0 0 0 0 0 0 0 0 1 3 10 22 32 44 59 71 77 76 76 77 77 76 74 69 68 68 67 64 58 48 38 27 18 12 8 5 2 0 0 0 0 0 0 0 0 0 0
0 0 0 0 0 0 0 0 0 1 1 3 11 22 33 45 59 72 80 80 77 73 72 74 73 71 70 67 64 61 55 48 39 29 19 13 8 5 2 0 0 0 0 0 0 1 1 1 1
0 0 0 0 0 0 0 0 1 2 4 8 17 26 36 50 64 74 81 82 78 72 69 69 69 71 71 67 62 57 50 43 37 28 20 14 9 4 2 1 0 0 0 0 0 1 2 2 2
0 0 0 0 0 0 0 1 1 4 7 13 22 34 44 55 65 71 75 76 73 69 65 62 61 63 66 66 64 58 49 40 33 27 21 15 9 4 3 2 0 0 0 0 0 0 1 1 1
0 0 0 0 0 0 1 2 3 6 8 12 23 38 49 56 60 64 65 64 64 60 56 53 52 54 57 61 62 58 49 41 33 26 20 13 8 5 4 2 1 0 0 0 0 0 0 0 0
0 0 0 0 0 0 1 4 6 8 8 13 26 42 51 55 56 55 54 54 54 53 49 46 46 48 49 52 54 51 46 40 33 25 18 10 6 5 3 2 2 2 1 0 0 0 0 0 0
0 0 0 0 0 1 3 7 9 8 9 19 33 44 50 53 53 50 48 47 46 45 44 42 42 43 43 44 44 42 39 35 28 23 17 10 6 5 3 2 2 3 3 2 1 0 0 0 0
0 0 0 0 0 1 4 9 10 8 11 22 33 39 43 46 47 46 44 41 39 37 36 36 37 37 36 34 33 32 31 28 23 19 15 10 6 4 3 2 2 3 4 3 2 1 0 0 0
0 0 0 0 0 1 4 8 9 10 15 22 29 33 35 37 39 41 40 38 34 32 30 30 31 32 30 25 22 24 26 24 19 14 10 8 5 3 2 3 3 3 3 3 3 3 2 1 1
0 0 0 0 0 1 3 7 8 12 17 23 28 32 32 31 32 37 38 35 33 32 30 27 26 26 26 24 21 23 24 21 15 10 7 5 4 3 2 3 3 3 3 3 4 4 3 1 0
0 0 0 0 0 1 3 6 9 13 18 25 30 31 30 29 28 31 34 33 33 33 29 24 21 20 23 26 25 24 23 17 10 7 5 3 4 5 3 2 3 3 3 3 3 4 3 1 0
0 0 0 0 0 1 4 8 9 12 18 25 29 30 30 28 26 28 31 33 33 32 27 22 19 18 22 25 25 22 19 15 10 6 4 3 4 5 3 1 2 3 3 3 3 3 2 1 0
0 0 0 0 0 1 5 9 10 11 16 24 28 30 30 29 27 28 31 33 33 30 26 23 21 21 22 23 22 19 16 14 10 6 4 3 3 4 3 1 1 2 2 2 2 2 1 0 0
0 0 0 0 0 1 4 7 8 10 16 25 29 30 29 27 27 27 28 28 28 27 25 24 24 25 24 23 22 19 16 12 9 6 4 3 3 3 1 0 0 1 1 1 1 1 0 0 0
0 0 0 0 0 0 1 3 6 12 20 28 31 29 25 23 22 20 19 19 20 20 20 22 23 25 25 23 21 18 14 11 8 6 4 3 3 1 0 0 0 0 0 0 0 0 0 0 0
0 0 0 0 0 0 0 1 4 12 23 30 30 25 20 17 15 13 13 13 13 13 15 18 20 20 20 19 17 14 11 8 7 6 4 3 2 1 0 0 0 0 0 0 0 0 0 0 0
0 0 0 0 0 0 0 0 2 8 17 24 24 20 16 13 11 11 11 11 10 11 13 16 17 16 15 13 11 9 7 5 5 6 5 3 1 0 0 0 0 0 0 0 0 0 0 0 0
0 0 0 0 0 0 0 0 0 3 7 13 15 14 11 10 11 11 11 10 10 11 13 15 16 14 11 8 7 5 4 4 4 5 4 2 0 0 0 0 0 0 0 0 0 0 0 0 0
0 0 0 0 0 0 0 0 0 0 3 7 9 8 6 7 8 9 9 9 8 9 11 13 13 11 6 4 4 4 3 2 3 3 2 0 0 0 0 0 0 0 0 0 0 0 0 0 0
0 0 0 0 0 0 0 0 0 1 4 7 6 4 4 4 5 6 6 6 6 7 8 8 8 5 2 1 2 2 1 1 1 1 0 0 0 0 0 0 0 0 0 0 0 0 0 0 0
0 0 0 0 0 0 0 0 1 4 6 6 5 3 3 3 3 4 3 3 3 4 5 5 3 1 0 0 1 1 0 0 0 0 0 0 0 0 0 0 0 0 0 0 0 0 0 0 0
0 0 0 0 0 0 0 0 1 5 7 6 3 2 2 2 2 2 1 1 1 1 2 2 1 0 0 0 0 0 0 0 0 0 0 0 0 0 0 0 0 0 0 0 0 0 0 0 0
0 0 0 0 0 0 0 0 1 4 5 4 2 1 1 1 1 1 0 0 0 0 0 0 0 0 0 0 0 0 0 0 0 0 0 0 0 0 0 0 0 0 0 0 0 0 0 0 0
0 0 0 0 0 0 0 0 1 3 4 2 1 0 0 0 0 0 0 0 0 0 0 0 0 0 0 0 0 0 0 0 0 0 0 0 0 0 0 0 0 0 0 0 0 0 0 0 0
Wind_Speed
6 4 1 3 5 3 5 8 5 6 4 1 3 7 7 5 5 4 3 13 14 15 13 16 18 18 17 17 17 16 17 17 17 17 17 16 16 15 14 14 13 12 13 13 13 13 13 13 13
3 2 3 4 5 1 8 7 7 8 5 2 4 7 7 4 5 8 6 12 16 16 12 14 18 18 18 17 17 16 17 17 16 16 16 16 15 14 14 14 13 12 12 12 12 12 12 12 12
3 0 4 4 3 6 8 6 5 5 3 2 3 4 5 6 7 8 9 17 15 14 12 14 20 18 18 18 17 16 17 16 16 16 16 15 15 14 13 13 13 12 11 11 11 11 10 10 10
2 4 4 2 7 9 8 11 8 8 4 0 4 4 3 4 7 10 17 18 16 13 11 14 19 18 18 18 18 17 17 16 16 16 15 15 14 13 13 13 12 12 11 11 10 10 9 9 8
3 4 2 3 8 9 9 13 11 8 5 2 5 5 3 2 10 17 19 17 16 12 9 12 17 17 17 18 18 17 17 16 15 15 15 14 13 12 12 12 12 11 11 11 10 9 8 7 7
4 4 3 4 8 9 9 11 8 5 4 3 5 5 2 5 13 15 15 14 13 14 11 10 16 18 17 17 17 16 15 15 15 15 14 13 13 12 12 11 11 11 10 10 10 8 7 6 5
4 3 3 5 6 10 11 7 3 3 2 2 5 6 3 4 10 14 14 13 11 12 11 9 9 12 15 15 15 15 15 14 14 14 14 14 13 13 12 11 11 10 10 10 9 8 7 5 4
5 3 2 3 5 9 8 6 3 1 1 2 5 7 5 6 10 12 13 12 11 10 9 8 7 7 7 9 14 15 14 14 14 15 15 15 14 13 13 10 10 11 11 10 9 8 7 5 4
4 3 4 5 5 7 7 6 7 4 5 5 4 5 8 12 14 14 12 11 10 10 7 7 7 6 7 7 10 12 13 13 13 12 15 13 7 7 8 10 11 12 11 10 9 8 7 5 4
5 4 9 8 6 5 6 4 5 6 7 6 7 10 12 13 13 13 13 11 11 10 8 6 7 6 6 7 6 5 6 6 5 5 7 5 4 4 7 8 12 11 11 10 10 9 7 5 1
4 8 9 9 9 5 3 4 4 4 4 3 7 10 12 13 12 12 11 11 11 10 10 7 6 6 6 4 4 3 3 4 4 5 5 4 3 3 4 3 5 6 7 4 5 5 3 2 2
5 10 9 9 8 3 2 1 3 4 1 4 10 12 13 13 12 11 10 9 9 9 9 9 9 7 6 5 4 4 3 3 4 5 6 4 3 3 3 3 3 3 2 3 2 2 2 2 3
6 10 11 10 7 5 1 1 1 1 3 7 11 12 12 12 10 9 9 8 8 7 6 6 8 8 7 5 5 5 4 4 4 4 5 5 4 4 3 3 3 4 3 3 2 2 2 2 2
6 7 8 6 5 3 2 2 1 1 4 8 10 10 10 10 10 10 9 8 6 6 6 5 6 5 4 4 4 4 4 4 4 3 5 5 4 4 4 4 4 4 4 3 3 3 2 2 2
4 5 7 5 3 2 3 3 2 4 6 8 9 10 11 9 10 9 8 8 6 6 6 5 5 4 4 2 3 3 3 4 4 4 4 5 4 4 4 4 4 4 3 3 2 2 2 2 3
6 4 5 8 3 3 5 3 6 3 8 8 8 9 11 10 9 7 7 7 6 6 5 4 5 5 5 4 2 2 3 3 3 3 3 4 4 4 4 3 3 3 3 3 3 3 3 2 3
5 3 6 10 6 2 5 4 5 2 10 10 8 8 10 10 10 7 7 6 5 6 6 4 3 3 4 4 3 2 3 3 2 2 2 2 3 3 3 3 2 3 3 4 4 3 3 4 4
5 4 5 7 6 3 5 4 1 3 9 9 8 7 9 10 9 7 8 6 5 5 4 4 3 2 2 3 3 2 3 2 2 2 2 2 2 3 2 2 2 2 3 3 4 5 4 4 5
6 7 8 8 4 4 5 4 1 3 7 8 7 7 8 8 8 8 8 8 7 6 5 4 3 2 2 2 3 3 2 2 2 2 1 2 2 2 2 1 2 2 3 4 5 5 6 5 6
8 7 6 6 3 4 5 4 3 4 4 6 8 8 8 8 8 9 9 8 7 6 5 4 4 2 3 3 3 2 3 2 2 2 3 3 3 2 1 1 2 2 2 3 5 5 5 4 4
6 4 3 3 4 5 5 4 4 5 7 9 8 7 8 9 8 8 8 8 7 7 5 4 4 3 2 3 3 4 4 3 3 2 3 4 4 3 2 2 2 1 2 3 3 5 6 5 2
4 3 2 1 3 2 3 1 2 2 6 7 7 7 8 8 9 8 9 9 8 7 6 6 6 5 4 3 4 5 5 4 3 3 3 4 4 4 3 3 2 2 2 2 2 3 4 6 4
4 2 2 2 3 3 4 4 2 2 3 4 5 7 8 8 8 9 9 8 7 7 6 6 6 6 6 5 4 5 5 4 4 4 5 5 4 5 5 4 3 3 2 3 3 4 4 3 3
2 5 6 6 6 3 2 2 2 2 3 5 6 7 7 7 8 9 9 8 8 7 7 7 6 7 7 6 5 6 7 6 6 5 5 4 3 4 6 5 4 4 3 3 3 4 5 4 5
5 7 5 6 5 3 1 2 2 3 3 7 9 8 7 7 8 8 8 9 8 8 7 7 7 7 7 7 7 7 7 7 7 5 5 4 4 4 5 5 5 4 5 5 5 6 6 5 6
1 7 6 3 3 3 2 1 1 1 6 8 8 9 8 7 7 8 8 7 7 7 7 7 7 8 8 7 7 7 7 6 5 6 5 5 4 4 5 6 6 6 7 7 7 7 6 6 6
1 1 6 6 2 1 1 1 1 4 7 8 8 8 7 7 7 7 7 7 7 6 7 7 7 7 7 7 7 8 7 7 7 7 6 5 4 5 6 7 7 7 8 8 7 6 6 6 7
3 3 5 5 3 1 2 3 5 8 8 8 7 8 7 7 7 7 6 6 6 6 6 7 7 7 6 6 6 6 7 7 7 6 7 6 6 6 7 7 8 8 8 8 8 7 7 8 7
3 3 4 4 4 5 3 5 4 10 11 10 8 8 8 7 6 6 6 5 5 6 6 6 7 7 6 6 7 7 7 6 7 7 7 6 6 6 7 7 7 8 8 7 8 8 8 9 8
2 2 4 4 2 4 3 4 1 8 9 10 10 9 9 8 7 6 6 5 5 6 6 6 6 6 6 6 7 7 7 7 7 7 6 6 7 7 7 7 8 8 8 7 7 8 8 8 8
Wind_Direction
311 294 130 62 54 38 256 251 251 287 285 213 118 111 115 117 148 170 168 151 144 149 157 158 155 151 147 143 138 135 132 129 126 123 120 118 117 115 115 116 118 119 120 120 120 119 118 116 115
306 306 61 65 91 268 266 249 248 257 237 156 105 107 96 83 109 120 123 149 147 149 154 158 157 153 150 146 143 141 139 136 133 129 127 125 123 121 122 122 124 124 124 124 124 122 120 118 117
285 295 90 91 160 204 246 265 271 281 259 161 110 96 112 130 129 138 149 144 142 149 154 160 158 155 152 150 148 147 144 142 140 137 134 132 130 128 128 130 131 131 130 131 129 127 124 122 119
35 47 56 101 242 237 239 273 286 297 306 267 110 83 85 137 149 142 139 140 141 147 152 158 158 157 155 154 152 152 150 149 147 144 141 140 138 136 136 137 138 139 138 137 136 134 131 127 122
67 77 66 277 260 263 260 267 265 262 244 203 122 117 89 75 111 129 138 140 141 142 145 154 156 156 157 158 157 156 155 154 152 149 147 145 143 143 143 144 145 146 145 145 145 142 140 138 132
53 72 105 255 268 277 275 263 259 249 233 178 130 116 95 118 121 135 139 135 138 138 138 147 156 159 160 161 160 159 158 158 156 154 152 151 150 150 150 150 152 152 151 151 151 150 150 149 145
123 115 202 243 280 288 286 287 247 214 204 174 133 109 104 123 131 134 130 124 127 130 135 139 152 161 163 163 162 160 160 160 159 158 156 157 157 158 158 157 157 158 157 158 160 162 167 169 168
150 102 281 278 279 281 293 318 309 112 117 92 100 124 155 162 130 123 118 115 120 121 133 138 144 148 154 161 166 164 163 163 163 164 163 164 165 165 166 163 165 166 167 168 170 176 184 189 192
119 87 260 254 255 273 307 346 341 18 68 59 71 121 140 134 124 117 113 115 121 126 132 132 136 143 147 156 166 166 167 168 168 171 171 169 168 166 169 173 174 175 176 178 180 186 196 207 216
116 171 235 229 233 263 305 338 337 27 40 45 52 72 104 114 117 120 127 131 132 136 134 132 139 151 153 162 153 155 166 168 171 173 173 168 165 172 173 182 183 183 185 188 190 196 204 214 224
179 209 240 254 251 245 289 337 9 63 33 76 111 112 112 104 105 115 126 135 139 138 140 143 147 151 154 154 151 154 161 166 172 175 170 164 161 171 177 175 187 188 191 191 199 201 201 205 211
233 254 246 252 255 237 217 357 26 52 122 127 117 117 111 108 113 124 133 135 138 142 151 156 155 153 158 152 160 163 166 174 179 178 173 167 168 173 172 176 180 179 182 182 188 193 205 221 228
242 257 262 258 260 237 163 130 108 73 108 99 101 103 108 115 118 119 124 125 128 137 146 162 155 159 163 159 164 163 167 177 182 175 178 173 171 172 170 176 180 180 173 174 177 184 194 213 233
253 265 272 266 260 242 156 242 99 214 121 97 93 97 104 112 118 112 113 120 133 144 144 155 150 146 151 164 161 161 171 176 172 175 182 177 173 178 179 183 182 183 179 179 184 186 183 187 181
309 321 316 295 263 240 109 337 288 202 118 102 97 99 98 96 99 109 123 129 141 143 139 150 149 132 137 152 183 167 175 172 177 180 185 186 186 186 187 182 189 191 180 174 172 169 158 162 153
359 359 319 295 280 256 123 251 273 201 120 115 109 102 97 95 93 96 109 118 127 124 131 144 151 153 156 153 171 162 165 161 165 176 178 192 196 187 178 184 194 187 167 156 156 159 156 148 131
359 317 284 293 276 214 139 200 253 159 119 122 118 113 104 97 84 80 85 97 105 121 131 127 119 149 155 148 137 140 131 137 142 144 157 183 178 174 169 183 194 182 166 161 165 163 156 143 127
259 271 285 281 282 144 149 185 236 85 115 122 122 112 103 96 89 84 80 78 84 96 112 128 120 119 120 121 124 113 101 124 125 131 156 171 169 159 150 175 182 177 170 166 162 160 145 138 131
247 269 281 284 297 94 137 135 63 70 99 112 113 109 103 93 87 78 77 74 73 71 73 90 104 128 139 155 158 142 134 129 106 88 101 109 97 117 144 167 181 193 187 177 167 152 138 133 130
244 258 280 302 348 84 108 93 49 43 89 110 116 110 103 93 78 71 67 63 61 61 62 73 85 120 151 161 161 137 122 110 88 51 47 54 68 76 113 170 176 181 171 165 163 144 139 146 158
261 238 242 268 7 47 91 47 28 36 64 74 80 87 88 89 83 72 66 60 56 51 47 55 57 62 84 113 113 113 101 92 86 61 41 35 47 57 71 77 98 122 160 173 160 154 150 153 157
266 257 179 103 61 354 79 125 318 50 63 66 72 78 79 78 75 67 60 54 47 42 41 42 48 49 48 81 112 124 119 116 105 102 77 51 41 42 50 60 64 90 110 128 142 135 137 144 152
227 233 94 84 93 50 23 105 289 51 80 85 83 81 77 74 75 72 64 59 48 41 45 44 48 47 40 46 75 101 99 100 94 91 88 70 46 41 45 50 58 67 83 94 95 107 113 125 138
119 51 32 42 63 29 303 119 279 264 189 143 114 100 86 79 74 68 62 55 46 40 47 54 54 49 46 50 58 79 94 95 95 88 85 71 54 39 40 49 55 60 64 78 95 95 100 103 103
58 71 29 3 14 283 303 98 266 295 152 142 132 115 97 82 73 64 59 54 44 35 36 48 59 54 45 55 60 66 78 85 84 82 80 76 61 49 38 46 52 56 58 65 76 82 82 90 95
230 128 152 195 222 269 357 104 273 32 102 107 110 109 99 82 74 69 62 55 47 39 37 45 55 57 49 53 60 62 70 75 73 71 73 70 65 59 53 57 57 59 64 68 69 73 71 77 85
106 136 165 139 142 117 266 133 179 113 117 119 118 110 103 92 82 74 64 57 49 47 44 47 59 64 58 57 64 62 62 72 75 71 68 66 61 64 59 64 64 63 66 70 75 76 73 76 74
121 144 76 94 134 229 234 212 206 177 171 153 143 129 117 100 86 76 66 59 54 53 54 51 56 64 64 62 69 75 66 69 74 74 68 66 61 60 60 62 63 63 64 69 76 77 72 75 69
9 42 93 114 150 157 221 253 221 180 174 161 151 138 129 116 102 87 75 65 60 55 56 57 58 59 59 62 69 74 70 67 70 71 68 66 61 59 61 62 65 64 62 65 73 76 76 76 71
144 153 138 145 210 162 171 255 297 161 156 150 144 136 128 120 110 102 94 82 67 60 59 58 62 65 62 64 70 74 73 70 70 70 64 61 60 59 62 64 65 67 64 63 72 80 77 81 79